Regional Weather Roundup
Issued by NWS

Home | Current Version | Previous Version | Graphics & Text | Print | Product List | Glossary On
Versions: 1 2 3 4 5 6 7 8 9 10 11 12 13 14 15 16 17 18 19 20 21 22 23 24 25 26 27 28 29 30 31 32 33 34 35 36 37 38 39 40 41 42 43 44 45 46 47 48 49 50
000
ASUS43 KTOP 252059
RWRKS

WEATHER ROUNDUP FOR KANSAS
NATIONAL WEATHER SERVICE GOODLAND KS
300 PM CST SUN FEB 25 2018

NOTE:  "FAIR" INDICATES FEW OR NO CLOUDS BELOW 12,000 FEET WITH NO
SIGNIFICANT WEATHER AND/OR OBSTRUCTIONS TO VISIBILITY.

KSZ001>006-013>018-027>032-041>047-252200-
NORTHWEST KANSAS

CITY           SKY/WX    TMP DP  RH WIND       PRES   REMARKS
GOODLAND       SUNNY     44   3  18 VRB7G20   29.93S
HAYS           SUNNY     50   7  17 SW5       30.00S
HILL CITY      MOSUNNY   51   8  17 SW13G23   29.97F
RUSSELL        SUNNY     52  10  18 VRB5      29.98F
$$

KSZ061>065-074>080-084>089-252200-
SOUTHWEST KANSAS

CITY           SKY/WX    TMP DP  RH WIND       PRES   REMARKS
DODGE CITY     SUNNY     50  13  22 VRB6G17   29.98R
GARDEN CITY    SUNNY     47   6  18 NW12      29.98S
LIBERAL        SUNNY     50  10  20 NW15      29.99R
$$

KSZ066>073-081>083-090>101-252200-
SOUTHEAST KANSAS

CITY           SKY/WX    TMP DP  RH WIND       PRES   REMARKS
CHANUTE        SUNNY     52  31  44 SE6       30.04F
COFFEYVILLE    SUNNY     55  36  48 SE7       30.03F
HUTCHINSON     PTSUNNY   49  29  46 S5        30.00S
MEDICINE LODGE   N/A     53  33  46 CALM      29.95F
NEWTON         CLOUDY    49  29  46 S10       30.02R
PARSONS        SUNNY     54  33  45 SE5       30.05F
WICHITA INTL   PTSUNNY   52  32  46 E7        30.00S
WICHITA JABRA  MOSUNNY   50  31  48 S9        30.00S
WICHITA MCCONL MOSUNNY   50  30  45 S7        30.00S
WINFIELD       SUNNY     55  33  43 S13       29.99F
$$

KSZ007>012-019>026-033>040-048>060-102>105-252200-
NORTHEAST KANSAS

CITY           SKY/WX    TMP DP  RH WIND       PRES   REMARKS
CONCORDIA      SUNNY     49  13  23 SW9       30.00F
EMPORIA        CLOUDY    52  21  29 SE7       30.01F
LAWRENCE       CLOUDY    50  20  30 S6        30.05S
MANHATTAN      CLOUDY    53  21  28 SW9       30.03R
OLATHE IND     CLOUDY    50  22  33 S8        30.05F
OLATHE EXE     CLOUDY    48  23  37 S8        30.05F
SALINA         CLOUDY    49  26  41 CALM      30.03S
TOPEKA BILLARD PTSUNNY   51  18  27 SW9       30.04R
TOPEKA FORBES  CLOUDY    49  20  31 SW3       30.04R
$$




USA.gov is the U.S. government's official web portal to all federal, state and local government web resources and services.